#timestamp,LO_Frequency,Hit 
1504292415.5,286047004.4,N
1504292435.3,286047002.3,N
1504292455.2,286046998.3,N
1504292475.0,286046998.9,N
1504292475.9,286046998.9,N
1504292495.7,286046999.9,N
1504292515.6,286047003.2,N
1504292535.4,286047003.2,N
1504292555.2,286047002.0,N
1504292575.1,286046997.1,N
1504292576.0,286046997.1,N
1504292595.8,286046996.9,N
1504292615.6,286046998.7,N
1504292635.5,286047004.3,N
1504292655.3,286047004.4,N
1504292675.1,286046998.2,N
1504292695.8,286046998.9,N
1504292715.7,286046999.9,N
1504292735.5,286047002.6,N
1504292755.3,286047003.0,N
1504292775.2,286047002.3,N
1504292795.9,286047000.1,N
1504292815.7,286047002.3,N
1504292835.6,286047004.6,N
1504292855.4,286047009.6,N
1504292875.2,286047009.3,N
1504292895.1,286047005.7,N
1504292896.0,286047005.7,N
1504292915.8,286047001.1,N
1504292935.6,286046995.0,N
1504292955.5,286046992.7,N
1504292975.3,286046992.9,N
1504292995.1,286046994.3,N
1504293015.9,286046987.3,P
1504293035.7,286046986.0,N
1504293055.5,286046988.6,N
1504293075.4,286046989.6,N
1504293095.2,286046986.5,N
1504293115.0,286046986.6,N
1504293115.9,286046986.6,N
1504293135.8,286046985.9,P
1504293155.6,286046999.0,N
1504293175.4,286046996.9,N
1504293195.3,286046996.7,N
1504293215.1,286046992.2,N
1504293216.0,286046992.2,N
1504293235.8,286046993.6,N
1504293255.7,286046995.6,N
1504293275.5,286046996.3,N
1504293295.3,286047000.1,N
1504293315.1,286046996.5,N
1504293335.9,286047001.0,N
1504293355.7,286047000.1,N
1504293375.5,286047000.6,N
1504293395.4,286046996.9,N
1504293415.2,286046996.2,N
1504293435.0,286046995.3,N
1504293435.9,286046995.3,N
1504293455.8,286046999.5,N
1504293475.6,286046997.0,N
1504293495.4,286046991.8,N
1504293515.3,286046994.6,N
1504293535.1,286046996.4,N
1504293536.0,286046996.4,N
1504293555.8,286046999.4,N
1504293575.6,286047001.0,N
1504293595.5,286047002.8,N
1504293615.3,286047003.9,N
1504293635.1,286047001.5,N
1504293655.9,286046999.8,N
1504293675.7,286047000.5,N
1504293695.5,286047000.7,N
1504293715.4,286046998.1,N
1504293735.2,286047001.6,N
1504293755.0,286047007.3,N
1504293755.9,286047007.3,N
1504293775.8,286047008.6,N
1504293795.6,286047006.9,N
1504293815.4,286047006.6,N
1504293835.3,286047004.8,N
1504293855.1,286047008.6,N
1504293856.0,286047008.6,N
1504293875.8,286047009.0,N
1504293895.7,286047011.9,N
1504293915.5,286047013.9,N
1504293935.3,286047008.6,N
1504293955.1,286047009.3,N
1504293975.9,286047011.7,N
1504293995.7,286047012.9,N
1504294015.5,286047015.0,N
1504294035.4,286047018.3,P
1504294055.2,286047015.2,N
1504294075.0,286047013.7,N
1504294076.0,286047013.7,N
1504294095.8,286047009.6,N
1504294115.6,286047008.2,N
1504294135.4,286047011.4,N
1504294155.3,286047008.2,N
1504294175.1,286047011.7,N
1504294195.9,286047015.3,P
1504294215.7,286046999.9,N
1504294235.5,286047002.1,N
1504294255.3,286047004.5,N
1504294275.2,286047003.2,N
1504294295.9,286047003.5,N
1504294315.7,286047002.9,N
1504294335.6,286047002.3,N
1504294355.4,286047000.0,N
1504294375.2,286047000.1,N
1504294395.1,286046998.1,N
1504294396.0,286046998.1,N
1504294415.8,286047002.6,N
1504294435.6,286047002.5,N
1504294455.5,286047004.0,N
1504294475.3,286047002.9,N
1504294495.1,286047007.5,N
1504294515.8,286047005.4,N
1504294535.7,286047003.5,N
1504294555.5,286047005.5,N
1504294575.3,286047004.2,N
1504294595.2,286047001.4,N
1504294615.9,286047001.8,N
1504294635.7,286047005.4,N
1504294655.6,286047006.2,N
1504294675.4,286047006.4,N
1504294695.2,286047003.1,N
1504294715.1,286047003.0,N
1504294716.0,286047003.0,N
1504294735.8,286047005.2,N
1504294755.6,286047005.7,N
1504294775.5,286047003.1,N
1504294795.3,286047004.4,N
1504294815.1,286047003.7,N
1504294835.8,286047003.2,N
1504294855.7,286047004.7,N
1504294875.5,286047009.1,P
1504294895.4,286047001.7,N
1504294915.2,286046996.6,N
1504294935.0,286046992.8,N
1504294935.9,286046992.8,N
1504294955.7,286046987.4,N
1504294975.6,286046986.2,N
1504294995.4,286046984.5,N
1504295015.2,286046988.0,N
1504295035.1,286046987.1,N
1504295036.0,286046987.1,N
1504295055.8,286046985.5,N
1504295075.6,286046982.5,N
1504295095.5,286046980.9,N
1504295115.3,286046981.3,N
1504295135.1,286046979.0,N
1504295155.9,286046979.9,N
1504295175.7,286046980.8,N
1504295195.5,286046982.1,N
1504295215.4,286046982.1,N
1504295235.2,286046981.4,N
1504295255.0,286046981.2,N
1504295255.9,286046981.2,N
1504295275.7,286046980.6,N
1504295295.6,286046982.6,N
1504295315.4,286046980.0,N
1504295335.2,286046976.5,P
1504295355.1,286046987.9,N
1504295356.0,286046987.9,N
1504295375.8,286046986.5,N
1504295395.6,286046989.9,N
1504295415.5,286046988.3,N
1504295435.3,286046987.6,P
1504295455.1,286047006.0,P
1504295475.9,286047006.1,N
1504295495.7,286047003.7,N
1504295515.5,286047003.1,N
1504295535.4,286047001.8,N
1504295555.2,286046999.9,N
1504295575.0,286047005.5,N
1504295575.9,286047005.5,N
1504295595.8,286047007.5,N
1504295615.6,286047006.4,N
1504295635.4,286047007.0,N
1504295655.3,286047007.6,N
1504295675.1,286047003.3,N
1504295676.0,286047003.3,N
1504295695.8,286047005.9,N
1504295715.7,286047009.4,N
1504295735.5,286047013.7,N
1504295755.3,286047016.3,N
1504295775.2,286047019.6,N
1504295795.9,286047019.0,N
1504295815.7,286047025.2,P
1504295835.6,286047021.9,N
1504295855.4,286047015.7,N
1504295875.2,286047020.3,N
1504295895.1,286047021.9,P
1504295896.0,286047021.9,P
1504295915.8,286047003.1,N
1504295935.6,286047004.0,N
1504295955.5,286047001.6,N
1504295975.3,286047001.8,N
1504295995.1,286047003.8,N
